Weather History for Glasgow, MT

Change the Weather History Date:

Saturday, July 27, 2013

  Actual Average Record
Temperature  
Mean Temperature 66 °F 73 °F  
Max Temperature 81 °F 87 °F 106 °F (1951)
Min Temperature 50 °F 59 °F 41 °F (1894)
Degree Days  
Heating Degree Days 0 0  
Month to date heating degree days 10 15  
Since 1 June heating degree days 94 120  
Since 1 July heating degree days 10 15  
Cooling Degree Days 1 8  
Month to date cooling degree days 162 175  
Year to date cooling degree days 220 267  
Since 1 June cooling degree days 211 250  
Growing Degree Days 16 (Base 50)    
Moisture  
Dew Point 45 °F    
Average Humidity 51    
Maximum Humidity 71    
Minimum Humidity 30    
Precipitation  
Precipitation 0.00 in 0.05 in 1.16 in (1955)
Month to date precipitation 0.84 1.60  
Year to date precipitation 12.30 7.75  
Snow  
Snow 0.00 in 0.00 in T in (1996)
Month to date snowfall 0.0 0.0  
Since 1 June snowfall 0.0 0.0  
Since 1 July snowfall 0.0 0.0  
Snow Depth 0.00 in    
Sea Level Pressure  
Sea Level Pressure 29.99 in    
Wind  
Wind Speed 19 mph (ESE)    
Max Wind Speed 28 mph    
Max Gust Speed 35 mph    
Visibility 10 miles    
Events      
T = Trace of Precipitation, MM = Missing Value Source: NWS Daily Summary

Daily Weather History Graph

Daily Weather History Graph

Search for Another Location

Airport:

Trip Planner

Search our weather history database for the weather conditions in past years. The results will help you decide how hot, cold, wet, or windy it might be!

Date:

Astronomy

Jul. 27, 2013 Rise Set
Actual Time 5:35 AM MDT 8:49 PM MDT
Civil Twilight 4:58 AM MDT 9:26 PM MDT
Nautical Twilight 4:09 AM MDT 10:15 PM MDT
Astronomical Twilight 3:06 AM MDT 11:16 PM MDT
Moon 11:03 PM MDT (7/27) 11:52 AM MDT (7/27)
Length of Visible Light 16h 28m
Length of Day
15h 13m
Waning Gibbous, 70% of the Moon is Illuminated
Jul 27
Waning Gibbous
Jul 29
Last Quarter
Aug 6
New
Aug 14
First Quarter
Aug 20
Full

Hourly Weather History & Observations

Time (MDT) Temp. Dew Point Humidity Pressure Visibility Wind Dir Wind Speed Gust Speed Precip Events Conditions
12:53 AM 55.9 °F 43.0 °F 62% 30.17 in 10.0 mi East 17.3 mph - N/A   Clear
1:53 AM 55.0 °F 43.0 °F 64% 30.16 in 10.0 mi ESE 15.0 mph - N/A   Clear
2:53 AM 53.1 °F 43.0 °F 69% 30.15 in 10.0 mi ESE 15.0 mph - N/A   Clear
3:53 AM 52.0 °F 43.0 °F 71% 30.15 in 10.0 mi ESE 13.8 mph - N/A   Clear
4:53 AM 51.1 °F 43.0 °F 74% 30.13 in 10.0 mi ESE 13.8 mph - N/A   Clear
5:53 AM 51.1 °F 43.0 °F 74% 30.12 in 10.0 mi ESE 16.1 mph - N/A   Clear
6:53 AM 53.1 °F 43.0 °F 69% 30.10 in 10.0 mi ESE 19.6 mph 28.8 mph N/A   Clear
7:53 AM 55.9 °F 43.0 °F 62% 30.09 in 10.0 mi ESE 19.6 mph - N/A   Clear
8:53 AM 60.1 °F 44.1 °F 55% 30.08 in 10.0 mi ESE 18.4 mph 25.3 mph N/A   Clear
9:53 AM 66.0 °F 45.0 °F 47% 30.05 in 10.0 mi ESE 17.3 mph 25.3 mph N/A   Clear
10:53 AM 71.1 °F 45.0 °F 39% 30.01 in 10.0 mi SE 19.6 mph 28.8 mph N/A   Clear
11:53 AM 73.9 °F 46.0 °F 37% 29.99 in 10.0 mi ESE 21.9 mph 29.9 mph N/A   Clear
12:53 PM 75.9 °F 46.0 °F 35% 29.98 in 10.0 mi East 18.4 mph 31.1 mph N/A   Clear
1:53 PM 79.0 °F 46.0 °F 31% 29.94 in 10.0 mi ESE 24.2 mph 32.2 mph N/A   Clear
2:53 PM 80.1 °F 46.9 °F 31% 29.92 in 10.0 mi ESE 24.2 mph 32.2 mph N/A   Clear
3:53 PM 81.0 °F 46.9 °F 30% 29.90 in 10.0 mi ESE 23.0 mph 31.1 mph N/A   Clear
4:53 PM 81.0 °F 46.9 °F 30% 29.88 in 10.0 mi ESE 20.7 mph 29.9 mph N/A   Clear
5:53 PM 81.0 °F 48.0 °F 31% 29.87 in 10.0 mi ESE 18.4 mph 28.8 mph N/A   Clear
6:53 PM 79.0 °F 48.0 °F 34% 29.86 in 10.0 mi ESE 23.0 mph 28.8 mph N/A   Clear
7:53 PM 75.9 °F 48.0 °F 37% 29.86 in 10.0 mi ESE 19.6 mph - N/A   Clear
8:53 PM 72.0 °F 48.9 °F 44% 29.87 in 10.0 mi East 13.8 mph - N/A   Clear
9:53 PM 70.0 °F 48.0 °F 46% 29.86 in 10.0 mi ESE 20.7 mph 25.3 mph N/A   Clear
10:53 PM 68.0 °F 46.9 °F 47% 29.86 in 10.0 mi East 18.4 mph - N/A   Clear
11:53 PM 64.9 °F 46.0 °F 50% 29.85 in 10.0 mi ESE 19.6 mph 27.6 mph N/A   Clear